Zurück zum Katalog

ONEWEB-0189

AktivKommunikationPO
NORAD 48217·PAYLOAD·🇬🇧 United Kingdom

Gestartet Apr 25, 2021 von Vostochny Cosmodrome

Loading…

Nächste Überflüge (nächste 24 Stunden)

TLE

AktuellSource: CelesTrak SupGP

Epoche: Sep 14, 2026, 16:27 UTC

1 48217C 21031H   26257.68555556 -.00002578  00000+0 -69631-2 0  2573
2 48217  87.8899 271.8523 0001658  88.1207 311.7329 13.14501624    11

Verfolge ONEWEB-0189 in Echtzeit mit AllMySat

Download on the App Store